Corpus Christi Naval Air Station,Truax Field Corpus Christi US
ICAO: KNGP
IATA: NGP
Category: Medium
Scheduled Services: No

Elevation: 18 ft
TransAlt. 18000 ft.

Airport Communications:
APP:120.9
ATIS:114
NAVY CORPUS CLNC DEL:31.43
DEP:125.4
NAVY CORPUS GND:118.7
AIR:38.18
BASE OPS:34.665
PMSV METRO:34.35
NAVY CORPUS TWR:134.85

KNGP Zoom In..

If you have problems with the map follow the link
https://www.worldairports.se/pages/airport.php?
ICAO=KNGP

Runways:

(A) RW 04 length 5004 ft width 196 ft
---- / hdg 39

(B) RW 13L length 5000 ft width 196 ft
---- / hdg 129

(C) RW 13R length 8002 ft width 200 ft
ILS 111.30 / hdg 129

(D) RW 17 length 5003 ft width 196 ft
---- / hdg 173

(E) RW 22 length 5004 ft width 196 ft
---- / hdg 219

(F) RW 31L length 8002 ft width 200 ft
---- / hdg 309

(G) RW 31R length 5000 ft width 196 ft
---- / hdg 309

(H) RW 35 length 5003 ft width 196 ft
---- / hdg 353

Location; KNGP
Day. 24 / Time. 07.56 Zulu
* Altimeter: 30.14
* Temperature: 08° c. 46.4°f.
* Wind from: 260° Speed 03 kn.
Dewpoint: 05° c.
Visibility: 10 Statute Miles.
Clouds: Clear (automated report).

KNGP 240756Z AUTO 26003KT 10SM CLR 08/05 A3014 RMK AO2 SLP206 T00780050


Wind From 260°
Speed 03 kn.

 
 
jpsmedia.com for Web Design worldairports.se 2019   terms of use